[[{"header":{"parameterUnit":"m.s-1","parameterCategory":1,"la1":30.2991,"la2":30.254,"lo1":-89.0895,"lo2":-89.0444,"dy":0.0017,"dx":0.0017,"nx":28,"ny":28,"refTime":"2023-04-23T21:00:00:Z","depth":0,"parameterNumber":2,"parameterNumberName":"U-component_of_WINDS"},"data":[0,0,0,0,0,0,0,0,0,0,0,0,0,0,0,0,0,0,0,0,0,0,0,0,0,0,0,0,0,0,0,0,0,0,0,0,0,0,0,0,0,0,0,0,0,0,0,0,0,0,0,0,0,0,0,0,0,0,-3.6735,-3.6735,0,-3.6777,-3.6777,-3.6778,-3.6628,-3.6623,-3.6619,-3.6614,-3.666,-3.6665,-3.667,0,0,0,0,0,0,0,0,0,0,0,0,0,-3.6527,-3.6531,-3.6735,-3.6736,-3.6736,-3.6777,-3.6777,-3.6778,-3.6628,-3.6623,-3.6618,-3.6612,-3.6658,-3.6664,-3.6671,0,0,0,0,0,0,0,0,0,0,0,0,0,-3.6598,-3.6533,-3.6735,-3.6666,-3.6661,-3.6776,-3.6777,-3.6778,-3.663,-3.6623,-3.6616,-3.661,-3.6656,-3.6664,-3.6672,-3.6857,0,0,-3.6697,-3.67,0,0,0,0,0,0,0,0,-3.6594,-3.6606,-3.6676,-3.6671,-3.6665,-3.669,-3.672,-3.6804,-3.6631,-3.6642,-3.6614,-3.6607,-3.6676,-3.6682,-3.6704,-3.6859,-3.6861,-3.6697,-3.6702,-3.6706,-3.6708,0,0,0,0,0,0,0,-3.6589,-3.6603,-3.6751,-3.6677,-3.6671,-3.6634,-3.6636,-3.6735,-3.6696,-3.664,-3.6629,-3.6636,-3.6671,-3.6697,-3.6704,-3.6861,-3.6697,-3.6704,-3.6709,-3.6712,-3.7168,-3.7175,0,0,0,0,0,0,-3.6593,-3.66,-3.675,-3.6753,-3.6612,-3.6643,-3.6646,-3.6689,-3.6694,-3.6689,-3.6642,-3.6629,-3.6686,-3.6695,-3.6705,-3.6922,-3.6706,-3.6713,-3.6718,-3.7161,-3.7169,-3.7177,0,0,0,0,0,0,-3.6589,-3.6608,-3.6748,-3.6673,-3.6688,-3.6654,-3.6703,-3.6693,-3.6719,-3.6696,-3.6688,-3.6675,-3.6681,-3.6694,-3.682,-3.6921,-3.6717,-3.6724,-3.7152,-3.7163,-3.7173,-3.7357,0,0,0,0,0,0,-3.6584,-3.6607,-3.6678,-3.6676,-3.6693,-3.6863,-3.6709,-3.6699,-3.6733,-3.6716,-3.6725,-3.672,-3.6677,-3.6808,-3.6828,-3.6929,-3.673,-3.7143,-3.7157,-3.717,-3.7341,-3.7372,-3.7399,0,0,0,0,0,-3.6577,-3.6728,-3.6682,-3.6701,-3.678,-3.6869,-3.6878,-3.6825,-3.6741,-3.6812,-3.6796,-3.672,-3.6906,-3.6822,-3.6843,-3.6948,-3.7136,-3.7153,-3.7169,-3.7328,-3.7366,-3.7398,0,0,0,0,0,0,-3.6744,-3.6727,-3.6675,-3.683,-3.6852,-3.6843,-3.693,-3.6867,-3.6914,-3.6897,-3.6829,-3.6832,-3.697,-3.6971,-3.6878,-3.7126,-3.7007,-3.7028,-3.7121,-3.7157,-3.7185,-3.7183,-3.6737,0,0,0,0,0,-3.6799,-3.6872,-3.6853,-3.6992,-3.7005,-3.6966,-3.7003,-3.696,-3.698,-3.6989,-3.6982,-3.7006,-3.7069,-3.7112,-3.717,-3.734,-3.7339,-3.7422,-3.745,-3.7474,-3.7494,-3.7584,-3.762,-3.7231,-3.7231,-3.723,0,0,-3.6913,-3.6912,-3.6963,-3.7025,-3.7037,-3.7115,-3.6975,-3.7063,-3.7121,-3.7002,-3.712,-3.7117,-3.7138,-3.7286,-3.7351,-3.7291,-3.7601,-3.7495,-3.7514,-3.7521,-3.7604,-3.7641,-3.7674,-3.7242,-3.724,-3.7238,0,0,-3.7161,-3.7168,-3.7284,-3.7298,-3.7317,-3.7289,-3.7317,-3.7318,-3.731,-3.7427,-3.734,-3.7406,-3.7518,-3.7536,-3.756,-3.7812,-3.7744,-3.7833,-3.7984,-3.8072,-3.8103,-3.813,-3.822,-3.8254,-3.7852,-3.7852,-3.7853,0,-3.7301,-3.7414,-3.7352,-3.7446,-3.7476,-3.737,-3.7487,-3.7504,-3.7541,-3.7564,-3.7496,-3.7632,-3.7638,-3.779,-3.7851,-3.7873,-3.7903,-3.7833,-3.8103,-3.8129,-3.8154,-3.8239,-3.8274,-3.7863,-3.7862,-3.7861,-3.786,0,-3.7586,-3.7665,-3.7757,-3.7794,-3.7834,-3.7939,-3.7893,-3.794,-3.7893,-3.7873,-3.7993,-3.7997,-3.8053,-3.8085,-3.804,-3.823,-3.8192,-3.8114,-3.7994,-3.8203,-3.8282,-3.8314,-3.7879,-3.7875,-3.7872,-3.7869,0,0,-3.7943,-3.7942,-3.7977,-3.7993,-3.8004,-3.8065,-3.8165,-3.8218,-3.826,-3.8289,-3.8371,-3.8466,-3.8394,-3.8421,-3.8377,-3.8454,-3.8654,-3.8367,-3.8366,-3.8421,-3.8864,-3.8923,-3.8962,-3.8607,-3.8613,-3.8618,-3.8862,0,-3.8188,-3.8358,-3.8304,-3.8476,-3.8549,-3.8448,-3.8535,-3.8552,-3.8535,-3.8595,-3.8575,-3.8645,-3.8544,-3.8559,-3.8631,-3.8615,-3.8743,-3.8596,-3.8685,-3.8689,-3.8685,-3.9004,-3.9067,-3.9298,-3.8893,-3.8898,-3.8902,0,-3.8496,-3.8536,-3.8716,-3.8714,-3.8742,-3.8822,-3.8865,-3.8923,-3.8939,-3.8921,-3.8951,-3.889,-3.8988,-3.8865,-3.8998,-3.89,-3.8932,-3.893,-3.8937,-3.8945,-3.881,-3.9022,-3.937,-3.9405,-3.895,-3.8946,-3.8943,0,-3.8741,-3.8838,-3.8958,-3.8974,-3.8975,-3.9033,-3.9036,-3.9045,-3.908,-3.9118,-3.914,-3.919,-3.9217,-3.9257,-3.9211,-3.9125,-3.9352,-3.9225,-3.9341,-3.9342,-3.9395,-3.9393,-3.9755,-3.9413,-3.9413,-3.9412,-3.9411,0,-3.902,-3.9135,-3.9068,-3.9142,-3.9267,-3.9202,-3.9327,-3.9319,-3.9328,-3.9398,-3.9314,-3.9382,-3.9316,-3.9378,-3.9342,-3.9459,-3.9472,-3.946,-3.945,-3.9469,-3.9471,-3.9491,-3.9475,-3.9421,-3.9419,-3.9417,-3.9416,0,-3.9315,-3.9275,-3.9399,-3.9388,-3.9388,-3.9481,-3.9472,-3.954,-3.9515,-3.9606,-3.9624,-3.9586,-3.9655,-3.9612,-3.9682,-3.9657,-3.981,-3.9776,-3.9805,-3.9796,-3.9915,-3.9905,-4.0304,-4.0353,-3.9979,-3.9983,-3.9986,0,-3.9498,-3.9583,-3.9581,-3.9622,-3.963,-3.9697,-3.9731,-3.967,-3.971,-3.9734,-3.98,-3.986,-3.9906,-4.002,-4.0,-4.0052,-4.002,-4.0156,-4.0028,-4.0044,-4.0024,-4.002,-4.0028,-4.0184,-4.0188,-4.0191,-4.0194,0,-3.9826,-3.9801,-3.9854,-3.99,-3.9944,-3.9977,-4.0004,-4.0042,-3.9981,-4.003,-4.0098,-4.0134,-4.0203,-4.0265,-4.0309,-4.0312,-4.0244,-4.0234,-4.0264,-4.0286,-4.0299,-4.0294,-3.9877,-4.0226,-4.0223,-4.0221,-4.0219,-4.0218,-4.007,-4.0141,-4.0151,-4.0212,-4.0225,-4.0252,-4.0315,-4.0298,-4.0353,-4.0405,-4.0365,-4.0447,-4.0459,-4.0511,-4.0522,-4.0585,-4.053,-4.0573,-4.0584,-4.0596,-4.0613,-4.0287,-4.0592,-4.0591,-4.0591,-4.059,-4.0589,0,-4.0395,-4.0395,-4.0452,-4.0491,-4.054,-4.0469,-4.0494,-4.054,-4.0613,-4.0629,-4.0675,-4.0754,-4.0812,-4.0795,-4.0848,-4.0902,-4.0872,-4.0918,-4.0914,-4.0916,-4.0659,-4.0628,-4.0941,-4.0941,-4.0941,-4.0941,-4.0941,-4.0941,-4.0569,-4.0685,-4.0662,-4.0783,-4.0782,-4.0861,-4.0881,-4.0905,-4.0918,-4.1009,-4.1057,-4.1045,-4.1048,-4.1099,-4.115,-4.1143,-4.1167,-4.1225,-4.1208,-4.0969,-4.0934,-4.0901,-4.0872,-4.1231,-4.1231,-4.146,-4.1462,-4.1463]},{"header":{"parameterUnit":"m.s-1","parameterCategory":1,"la1":30.2991,"la2":30.254,"lo1":-89.0895,"lo2":-89.0444,"dy":0.0017,"dx":0.0017,"nx":28,"ny":28,"refTime":"2023-04-23T21:00:00:Z","depth":0,"parameterNumber":3,"parameterNumberName":"V-component_of_WINDS"},"data":[0,0,0,0,0,0,0,0,0,0,0,0,0,0,0,0,0,0,0,0,0,0,0,0,0,0,0,0,0,0,0,0,0,0,0,0,0,0,0,0,0,0,0,0,0,0,0,0,0,0,0,0,0,0,0,0,0,0,-3.8358,-3.8359,0,-3.8388,-3.8388,-3.8389,-3.8361,-3.836,-3.8359,-3.8358,-3.8386,-3.8387,-3.8389,0,0,0,0,0,0,0,0,0,0,0,0,0,-3.8273,-3.8275,-3.8358,-3.8359,-3.8359,-3.8388,-3.8388,-3.8389,-3.8361,-3.836,-3.8358,-3.8357,-3.8385,-3.8387,-3.8389,0,0,0,0,0,0,0,0,0,0,0,0,0,-3.8307,-3.8276,-3.8358,-3.8349,-3.8348,-3.8388,-3.8388,-3.8389,-3.8361,-3.836,-3.8358,-3.8356,-3.8384,-3.8387,-3.839,-3.844,0,0,-3.8398,-3.8399,0,0,0,0,0,0,0,0,-3.8306,-3.8311,-3.835,-3.8349,-3.8349,-3.8369,-3.8369,-3.8406,-3.8362,-3.8356,-3.8358,-3.8356,-3.8381,-3.8384,-3.8393,-3.8441,-3.8442,-3.8398,-3.84,-3.8401,-3.8402,0,0,0,0,0,0,0,-3.8303,-3.8309,-3.837,-3.835,-3.835,-3.8342,-3.8345,-3.8376,-3.8378,-3.8357,-3.8355,-3.8359,-3.8381,-3.8391,-3.8394,-3.8442,-3.8398,-3.84,-3.8402,-3.8403,-3.8529,-3.8531,0,0,0,0,0,0,-3.8302,-3.8307,-3.8369,-3.8371,-3.8323,-3.8345,-3.8348,-3.8364,-3.8377,-3.8378,-3.836,-3.8357,-3.8387,-3.8391,-3.8395,-3.8452,-3.8401,-3.8403,-3.8405,-3.8528,-3.853,-3.8532,0,0,0,0,0,0,-3.8301,-3.8308,-3.8368,-3.8339,-3.8346,-3.8348,-3.8366,-3.8366,-3.8376,-3.838,-3.838,-3.837,-3.8386,-3.8391,-3.8428,-3.8452,-3.8404,-3.8407,-3.8525,-3.8528,-3.8531,-3.8568,0,0,0,0,0,0,-3.8298,-3.8308,-3.8328,-3.8339,-3.8347,-3.8402,-3.8368,-3.8368,-3.8381,-3.8377,-3.8389,-3.839,-3.8385,-3.8424,-3.8431,-3.8455,-3.8409,-3.8523,-3.8527,-3.853,-3.8564,-3.8571,-3.8577,0,0,0,0,0,-3.8295,-3.8337,-3.8329,-3.8337,-3.8373,-3.8404,-3.8408,-3.8402,-3.8383,-3.8402,-3.8404,-3.8389,-3.8449,-3.8428,-3.8435,-3.8461,-3.8522,-3.8526,-3.853,-3.8561,-3.857,-3.8577,0,0,0,0,0,0,-3.8328,-3.8339,-3.833,-3.8377,-3.8389,-3.8399,-3.8423,-3.8412,-3.843,-3.8426,-3.8417,-3.842,-3.8459,-3.8464,-3.8441,-3.8508,-3.8482,-3.8488,-3.8504,-3.8512,-3.8518,-3.8515,-3.8411,0,0,0,0,0,-3.8341,-3.8366,-3.8374,-3.8414,-3.8421,-3.8421,-3.8434,-3.8429,-3.8441,-3.8446,-3.8452,-3.8464,-3.8485,-3.8499,-3.8519,-3.8565,-3.8566,-3.8586,-3.8593,-3.8598,-3.8602,-3.8625,-3.8633,-3.8544,-3.8544,-3.8544,0,0,-3.8368,-3.8376,-3.8393,-3.8421,-3.843,-3.8455,-3.8426,-3.8454,-3.8472,-3.845,-3.8485,-3.849,-3.8502,-3.8544,-3.8562,-3.8549,-3.8627,-3.8603,-3.8607,-3.8609,-3.8629,-3.8638,-3.8645,-3.8547,-3.8547,-3.8546,0,0,-3.8428,-3.8438,-3.8472,-3.8482,-3.8496,-3.8495,-3.8503,-3.8514,-3.8516,-3.8551,-3.8535,-3.8555,-3.8593,-3.8602,-3.8611,-3.8673,-3.8659,-3.868,-3.8713,-3.8735,-3.8742,-3.8748,-3.8767,-3.8775,-3.8684,-3.8684,-3.8685,0,-3.8459,-3.8496,-3.849,-3.8519,-3.8531,-3.8513,-3.8546,-3.8555,-3.8575,-3.8583,-3.8568,-3.8613,-3.8621,-3.8662,-3.8677,-3.8687,-3.8694,-3.8678,-3.8741,-3.8747,-3.8753,-3.8772,-3.8779,-3.8687,-3.8686,-3.8686,-3.8686,0,-3.8532,-3.8558,-3.8584,-3.8603,-3.8618,-3.8649,-3.8646,-3.8661,-3.8654,-3.8654,-3.8689,-3.8697,-3.8717,-3.8727,-3.8721,-3.8767,-3.8758,-3.8743,-3.8716,-3.8764,-3.8781,-3.8788,-3.869,-3.8689,-3.8688,-3.8688,0,0,-3.8614,-3.8629,-3.8638,-3.8645,-3.8659,-3.8679,-3.8708,-3.8727,-3.874,-3.8754,-3.8776,-3.8808,-3.8793,-3.8803,-3.8797,-3.8817,-3.8862,-3.8798,-3.8798,-3.8808,-3.8911,-3.8922,-3.893,-3.8854,-3.8855,-3.8856,-3.891,0,-3.8673,-3.8724,-3.8718,-3.8766,-3.8788,-3.8771,-3.8796,-3.8806,-3.8807,-3.8825,-3.8826,-3.8847,-3.8827,-3.8833,-3.8852,-3.8853,-3.8882,-3.8849,-3.8872,-3.8873,-3.8868,-3.894,-3.8951,-3.9001,-3.8917,-3.8918,-3.8919,0,-3.8749,-3.8765,-3.8815,-3.8823,-3.8832,-3.8855,-3.8871,-3.889,-3.89,-3.8899,-3.891,-3.89,-3.8927,-3.8901,-3.8937,-3.8914,-3.8924,-3.8925,-3.8927,-3.8928,-3.8898,-3.894,-3.9017,-3.9024,-3.893,-3.8929,-3.8928,0,-3.8801,-3.8835,-3.8868,-3.8876,-3.8887,-3.8902,-3.8907,-3.8916,-3.8928,-3.8942,-3.8949,-3.8967,-3.8976,-3.8989,-3.8983,-3.8965,-3.9019,-3.8993,-3.9017,-3.9017,-3.9028,-3.9027,-3.9106,-3.9038,-3.9038,-3.9038,-3.9037,0,-3.8866,-3.8896,-3.8891,-3.8912,-3.8945,-3.8938,-3.897,-3.8973,-3.8981,-3.9,-3.8987,-3.9005,-3.8998,-3.9015,-3.9011,-3.904,-3.9045,-3.9043,-3.9041,-3.9043,-3.9043,-3.9048,-3.9044,-3.904,-3.9039,-3.9039,-3.9038,0,-3.8929,-3.8927,-3.8962,-3.8969,-3.8971,-3.8995,-3.9,-3.9019,-3.9018,-3.9043,-3.9048,-3.9047,-3.9067,-3.9063,-3.9085,-3.9082,-3.9118,-3.9113,-3.9114,-3.9112,-3.9136,-3.9133,-3.9219,-3.9229,-3.9156,-3.9157,-3.9158,0,-3.897,-3.8992,-3.9002,-3.9014,-3.902,-3.904,-3.9051,-3.9045,-3.9057,-3.9069,-3.9085,-3.9104,-3.9118,-3.915,-3.9151,-3.9167,-3.9161,-3.919,-3.9163,-3.9163,-3.9158,-3.9156,-3.9157,-3.9194,-3.9195,-3.9196,-3.9197,0,-3.9041,-3.9039,-3.9056,-3.9072,-3.9086,-3.9099,-3.911,-3.9121,-3.9115,-3.9129,-3.9149,-3.916,-3.9182,-3.9199,-3.9214,-3.9218,-3.9206,-3.9205,-3.9211,-3.9212,-3.9211,-3.921,-3.9126,-3.9203,-3.9202,-3.9202,-3.9201,-3.9201,-3.9093,-3.9111,-3.912,-3.9139,-3.9146,-3.9157,-3.9173,-3.9175,-3.9191,-3.9208,-3.9204,-3.9225,-3.9233,-3.9252,-3.9257,-3.9274,-3.9263,-3.9272,-3.9274,-3.9276,-3.9278,-3.9211,-3.9277,-3.9276,-3.9276,-3.9276,-3.9276,0,-3.9161,-3.9166,-3.9183,-3.9199,-3.9213,-3.9201,-3.9213,-3.9225,-3.9245,-3.9253,-3.9267,-3.9289,-3.9306,-3.9308,-3.9323,-3.9336,-3.933,-3.934,-3.9338,-3.9338,-3.9288,-3.928,-3.9344,-3.9344,-3.9344,-3.9344,-3.9343,-3.9343,-3.9199,-3.9228,-3.9227,-3.9259,-3.9263,-3.9285,-3.9292,-3.9301,-3.9307,-3.9332,-3.9346,-3.9347,-3.9352,-3.9368,-3.9382,-3.9382,-3.9387,-3.9398,-3.9396,-3.9349,-3.9342,-3.9336,-3.9328,-3.94,-3.94,-3.9444,-3.9445,-3.9445]}]]